TimePST,TemperatureF,Dew PointF,Humidity,Sea Level PressureIn,VisibilityMPH,Wind Direction,Wind SpeedMPH,Gust SpeedMPH,PrecipitationIn,Events,Conditions,WindDirDegrees,DateUTC
12:53 AM,53.1,51.1,93,30.09,10.0,SE,10.4,-,N/A,,Overcast,130,2012-12-23 08:53:00
1:53 AM,53.1,50.0,89,30.08,10.0,SE,10.4,-,N/A,,Overcast,130,2012-12-23 09:53:00
2:53 AM,53.1,50.0,89,30.07,10.0,SE,11.5,-,N/A,,Overcast,140,2012-12-23 10:53:00
3:53 AM,53.1,48.9,86,30.04,10.0,SE,17.3,-,0.00,Rain,Light Rain,140,2012-12-23 11:53:00
4:53 AM,53.1,48.9,86,30.04,10.0,SSE,17.3,-,0.00,Rain,Light Rain,150,2012-12-23 12:53:00
5:53 AM,53.1,50.0,89,30.03,10.0,SSE,19.6,-,0.02,Rain,Light Rain,150,2012-12-23 13:53:00
6:53 AM,54.0,48.9,83,30.01,10.0,SSE,24.2,33.4,0.00,Rain,Light Rain,150,2012-12-23 14:53:00
7:53 AM,53.1,51.1,93,29.99,9.0,SSE,29.9,38.0,0.05,Rain,Light Rain,150,2012-12-23 15:53:00
8:53 AM,53.1,52.0,96,29.99,5.0,SSE,25.3,34.5,0.04,Rain,Light Rain,150,2012-12-23 16:53:00
9:19 AM,53.6,51.8,94,29.98,8.0,SSE,27.6,33.4,0.01,Rain,Light Rain,150,2012-12-23 17:19:00
9:53 AM,53.1,52.0,96,29.99,8.0,SSE,26.5,32.2,0.03,Rain,Rain,150,2012-12-23 17:53:00
10:53 AM,54.0,54.0,100,29.98,5.0,SSE,24.2,-,0.05,Rain,Light Rain,160,2012-12-23 18:53:00
11:53 AM,54.0,54.0,100,29.92,2.5,SE,26.5,35.7,0.13,Rain,Light Rain,140,2012-12-23 19:53:00
12:00 PM,53.6,53.6,100,29.92,2.5,SE,26.5,-,0.03,Rain,Rain,140,2012-12-23 20:00:00
12:53 PM,54.0,54.0,100,29.91,1.2,SSE,24.2,32.2,0.16,Rain,Heavy Rain,150,2012-12-23 20:53:00
1:16 PM,53.6,53.6,100,29.91,1.8,SSE,24.2,29.9,0.09,Rain,Light Rain,150,2012-12-23 21:16:00
1:35 PM,53.6,53.6,100,29.92,3.0,SE,13.8,-,0.21,Rain,Light Rain,140,2012-12-23 21:35:00
1:53 PM,54.0,54.0,100,29.93,6.0,South,15.0,-,0.24,Rain,Rain,170,2012-12-23 21:53:00
2:16 PM,55.4,53.6,94,29.89,8.0,SE,16.1,26.5,0.05,Rain,Light Rain,140,2012-12-23 22:16:00
2:48 PM,55.4,55.4,100,29.91,10.0,SE,18.4,26.5,0.05,,Overcast,140,2012-12-23 22:48:00
2:53 PM,55.9,55.9,100,29.91,10.0,SE,19.6,26.5,0.05,,Overcast,140,2012-12-23 22:53:00
3:07 PM,55.4,55.4,100,29.91,5.0,SSE,17.3,23.0,0.02,Rain,Heavy Rain,150,2012-12-23 23:07:00
3:49 PM,55.4,55.4,100,29.88,2.0,SE,10.4,-,0.08,Rain,Heavy Rain,130,2012-12-23 23:49:00
3:53 PM,55.0,55.0,100,29.88,2.5,SE,9.2,-,0.09,Rain,Rain,130,2012-12-23 23:53:00
4:04 PM,55.4,55.4,100,29.88,4.0,SSE,12.7,-,0.01,Rain,Light Rain,150,2012-12-24 00:04:00
4:11 PM,55.4,55.4,100,29.88,6.0,SE,13.8,-,0.02,Rain,Light Rain,140,2012-12-24 00:11:00
4:16 PM,55.4,53.6,94,29.89,2.0,South,10.4,-,0.03,Rain,Heavy Rain,170,2012-12-24 00:16:00
4:30 PM,55.4,53.6,94,29.89,1.2,SE,11.5,-,0.17,Rain,Heavy Rain,140,2012-12-24 00:30:00
4:48 PM,55.4,53.6,94,29.88,2.0,SSE,18.4,-,0.25,Rain,Light Rain,150,2012-12-24 00:48:00
4:53 PM,55.0,54.0,96,29.88,4.0,SSE,17.3,-,0.25,Rain,Light Rain,150,2012-12-24 00:53:00
5:16 PM,55.4,53.6,94,29.89,10.0,SE,10.4,-,0.00,,Overcast,140,2012-12-24 01:16:00
5:32 PM,55.4,53.6,94,29.89,3.0,SE,6.9,-,0.02,Rain,Rain,140,2012-12-24 01:32:00
5:39 PM,53.6,53.6,100,29.89,2.0,SE,13.8,-,0.02,Rain,Light Rain,140,2012-12-24 01:39:00
5:53 PM,54.0,54.0,100,29.90,3.0,SSE,9.2,-,0.03,Rain,Light Rain,150,2012-12-24 01:53:00
6:13 PM,53.6,53.6,100,29.90,10.0,SSE,6.9,-,0.00,,Overcast,150,2012-12-24 02:13:00
6:53 PM,54.0,54.0,100,29.91,10.0,WSW,4.6,-,0.00,,Overcast,240,2012-12-24 02:53:00
7:29 PM,53.6,53.6,100,29.93,10.0,West,13.8,-,N/A,,Overcast,270,2012-12-24 03:29:00
7:34 PM,53.6,53.6,100,29.93,10.0,West,12.7,-,N/A,,Mostly Cloudy,270,2012-12-24 03:34:00
7:53 PM,54.0,54.0,100,29.94,10.0,West,15.0,-,N/A,,Scattered Clouds,280,2012-12-24 03:53:00
8:53 PM,53.1,53.1,100,29.96,10.0,West,4.6,-,N/A,,Scattered Clouds,280,2012-12-24 04:53:00
9:53 PM,52.0,48.9,89,29.99,10.0,NW,3.5,-,N/A,,Scattered Clouds,310,2012-12-24 05:53:00
10:53 PM,52.0,48.9,89,30.01,10.0,WNW,3.5,-,N/A,,Scattered Clouds,300,2012-12-24 06:53:00
11:53 PM,48.0,45.0,89,30.04,10.0,NE,4.6,-,N/A,,Partly Cloudy,50,2012-12-24 07:53:00